Flag for U.S.A. Weather past 2 weeks in Lakewood, Colorado, U.S.A.

Now
64 °F

Passing clouds.


Feels Like: 64 °F
Forecast: 58 / 85 °F
Wind: 7 mph from South

Location: Centennial Airport

Current Time: Jul 30, 2015 at 3:21:09 AM

Latest Report: Jul 30, 2015 at 2:53 AM


Visibility: 10 mi

Pressure: 30.11 "Hg (24.71 "Hg at 1683m altitude)

Humidity: 58%

Dew point: 49 °F

Location of LakewoodLocation

Historic Weather in Lakewood — Graph

°F

Lakewood temperature yesterday

Maximum temperature yesterday: 82 °F (at 3:53 PM)
Minimum temperature yesterday: 57 °F (at 2:53 AM)
Average temperature yesterday: 71 °F

Past Weeks' High & Low Weather Summary

 TemperatureHumidityPressure
High93 °F (Jul 27, 3:53 PM)96% (Jul 19, 4:53 AM)30.23 "Hg (Jul 19, 4:53 AM)
Low55 °F (Jul 16, 3:53 AM)13% (Jul 17, 12:53 PM)29.61 "Hg (Jul 27, 3:53 PM)
Average72 °F46%29.92 "Hg
* Reported Jul 15 1:53 AM — Jul 30 1:53 AM, Lakewood, Weather by CustomWeather, © 2015

Note: Actual official high and low records may vary slightly from our data, if they occured in-between our weather recording intervals... More about our weather records

Advertising

Lakewood weather history for previous 24 hours

 ConditionsComfort  
Time TempWeatherWind HumidityBarometerVisibility
1:53 AM
Thu, Jul 30
64 °FPassing clouds.10 mph61%30.11 "Hg10 mi
12:53 AM67 °FPassing clouds.12 mph55%30.11 "Hg10 mi
11:53 PM
Wed, Jul 29
69 °FPassing clouds.9 mph51%30.10 "Hg10 mi
10:53 PM71 °FPassing clouds.14 mph47%30.11 "Hg10 mi
9:53 PM69 °FPartly cloudy.12 mph53%30.12 "Hg10 mi
8:53 PM71 °FScattered clouds.12 mph47%30.10 "Hg10 mi
7:53 PM75 °FBroken clouds.14 mph42%30.09 "Hg10 mi
6:53 PM77 °FBroken clouds.16 mph40%30.08 "Hg10 mi
5:53 PM78 °FBroken clouds.16 mph37%30.08 "Hg10 mi
4:53 PM80 °FScattered clouds.18 mph34%30.06 "Hg10 mi
3:53 PM82 °FScattered clouds.17 mph32%30.08 "Hg10 mi
2:53 PM80 °FPassing clouds.23 mph35%30.10 "Hg10 mi
1:53 PM80 °FPassing clouds.22 mph35%30.09 "Hg10 mi
12:53 PM80 °FPassing clouds.21 mph36%30.11 "Hg10 mi
11:53 AM80 °FPassing clouds.14 mph34%30.12 "Hg10 mi
10:53 AM75 °FPassing clouds.No wind39%30.14 "Hg10 mi
9:53 AM72 °FPassing clouds.No wind43%30.14 "Hg10 mi
8:53 AM70 °FPassing clouds.12 mph46%30.14 "Hg10 mi
7:53 AM66 °FScattered clouds.14 mph50%30.14 "Hg10 mi
6:53 AM62 °FPassing clouds.10 mph56%30.13 "Hg10 mi
5:53 AM61 °FPassing clouds.13 mph54%30.12 "Hg10 mi
4:53 AM62 °FPassing clouds.12 mph50%30.11 "Hg10 mi
3:53 AM57 °FPassing clouds.7 mph62%30.12 "Hg10 mi
Weather by CustomWeather, © 2015

See weather overviewHow to use our weather pages